Regional Weather Roundup
Issued by NWS Little Rock, AR

Home | Current Version | Previous Version | Graphics & Text | Print | Product List | Glossary On
Versions: 1 2 3 4 5 6 7 8 9 10 11 12 13 14 15 16 17 18 19 20 21 22 23 24 25 26 27 28 29 30 31 32 33 34 35 36 37 38 39 40 41 42 43 44 45 46 47 48
000
ASUS44 KLZK 280905
RWRLZK

WEATHER ROUNDUP FOR ARKANSAS
NATIONAL WEATHER SERVICE LITTLE ROCK AR
300 AM CST SAT FEB 28 2015

NOTE: "FAIR" INDICATES FEW OR NO CLOUDS BELOW 12,000 FEET WITH NO
SIGNIFICANT WEATHER AND/OR OBSTRUCTIONS TO VISIBILITY.

ARZ001-003-010-029-281000-
NORTHWEST ARKANSAS

CITY           SKY/WX    TMP DP  RH WIND       PRES   REMARKS
FAYETTEVILLE   LGT SNOW  18  16  92 NE3       30.45F FOG
FORT SMITH     LGT SNOW  23  18  81 E10       30.50F WCI  12
HARRISON       LGT SNOW  17  15  92 E6        30.47F FOG     WCI   9
BENTONVILLE    CLOUDY    19  12  73 E6        30.46S WCI  11
ROGERS         FLURRIES  18  14  84 E7        30.46F WCI   9
SILOAM SPGS    CLOUDY    19  10  68 E5        30.46F WCI  13
HIGHFILL       CLOUDY    19  14  81 E8        30.45F WCI   9
$$

ARZ004-005-016-281000-
NORTH CENTRAL ARKANSAS

CITY           SKY/WX    TMP DP  RH WIND       PRES   REMARKS
BATESVILLE     CLOUDY    21  18  86 N6        30.55F WCI  14
FLIPPIN        MOCLDY    19  12  73 E5        30.53S WCI  13
MTN HOME       FLURRIES  18  15  88 E5        30.51F WCI  11
$$

ARZ040-041-281000-
WEST CENTRAL ARKANSAS

CITY           SKY/WX    TMP DP  RH WIND       PRES   REMARKS
MENA           CLOUDY    25  21  86 E6        30.43F WCI  18
MOUNT IDA      LGT SNOW  24  16  71 CALM      30.45F
$$

ARZ009-017-025-026-028-281000-
NORTHEAST ARKANSAS

CITY           SKY/WX    TMP DP  RH WIND       PRES   REMARKS
CORNING        LGT RAIN  23  16  74 NE15      30.59F WCI  10
JONESBORO      CLOUDY    24  16  71 NE8       30.56F WCI  15
NEWPORT        FLURRIES  24  18  78 NE14      30.57F WCI  12
WALNUT RIDGE   MOCLDY    25  12  58 NE10      30.58F WCI  15
BLYTHEVILLE    CLOUDY    26  17  68 NE13      30.57S WCI  15
$$

ARZ022-023-033-042-044-281000-
CENTRAL ARKANSAS

CITY           SKY/WX    TMP DP  RH WIND       PRES   REMARKS
LITTLE ROCK    CLOUDY    26  16  65 NE8       30.54F WCI  18
N LITTLE ROCK    N/A     24  20  84 NE8       30.54F WCI  15
JACKSONVILLE   CLOUDY    25  16  67 NE7       30.53F WCI  17
SEARCY         CLOUDY    24  17  74 NE9       30.56F WCI  14
HOT SPRINGS    FLURRIES  24  17  74 NE6       30.49F WCI  17
RUSSELLVILLE   LGT SNOW  23  16  74 E5        30.51F WCI  17
CLINTON        LGT SNOW  23  18  80 CALM      30.55F
$$

ARZ036-281000-
EAST ARKANSAS

CITY           SKY/WX    TMP DP  RH WIND       PRES   REMARKS
WEST MEMPHIS   CLOUDY    28  17  63 NE7       30.52F WCI  21
$$

ARZ050-053-066-070-073-281000-
SOUTHWEST ARKANSAS

CITY           SKY/WX    TMP DP  RH WIND       PRES   REMARKS
ARKADELPHIA    PTSUNNY   26  21  81 NE7       30.52F WCI  18
CAMDEN         CLOUDY    28  18  64 MISG      30.50S
TEXARKANA      CLOUDY    26  21  81 E9        30.45F WCI  17
EL DORADO      CLOUDY    28  19  69 NE8       30.47F WCI  20
DE QUEEN       CLOUDY    25  19  78 E8        30.45F WCI  16
$$

ARZ056-057-069-281000-
SOUTHEAST ARKANSAS

CITY           SKY/WX    TMP DP  RH WIND       PRES   REMARKS
PINE BLUFF     CLOUDY    27  19  72 N9        30.52S WCI  18
STUTTGART      CLOUDY    27  18  69 NE10      30.53S WCI  17
MONTICELLO     CLOUDY    28  20  71 VRB7      30.49F WCI  21

$$





USA.gov is the U.S. government's official web portal to all federal, state and local government web resources and services.